Location: Kawakawa
(35.3830°S, 174.0670°E)
Time: 23:55:09
(UTC+13:00)

Altair - Pass Details

Date: 15 December 2019
Orbit: 1502 x 1682 km, 47.2° (Epoch: 23 January)

Event Time Altitude Azimuth Distance (km) Brightness Sun altitude
Rises 11:12:49 0° 268° (W) 4,788 9.8 60.2°
Reaches altitude 10° 11:16:06 10° 261° (W) 3,831 9.4 60.8°
Maximum altitude 11:25:24 45° 190° (S) 2,155 8.8 62.7°
Drops below altitude 10° 11:35:00 10° 120° (ESE) 3,950 10.0 64.5°
Sets 11:38:28 0° 113° (ESE) 4,947 10.4 65.1°
